Tracking 20232 objects as of 21-Jan-2020
HD Live streaming from Space Station
objects crossing your sky now

PSLV R/B

Track PSLV R/B now!
10-day predictions


NORAD ID: 37842
Int'l Code: 2011-058E
Perigee: 785.5 km
Apogee: 872.0 km
Inclination: 19.8 °
Period: 101.3 minutes
Semi major axis: 7199 km
RCS: 0.1259 m2 (medium)
Launch date: October 12, 2011
Source: India (IND)
Launch site: SRIHARIKOTA (SRI)

Note: This is a ROCKET BODY
aabbcc
Your satellite tracking list
Your tracking list is empty




NASA's NSSDC Master Catalog

Two Line Element Set (TLE):
1 37842U 11058E   20021.52500353  .00000281  00000-0  28546-5 0  9998
2 37842  19.7922 178.2649 0060087  56.6872 303.9269 14.21110761430528
Source of the keplerian elements: AFSPC